Weather History for Curtin, WE

Change the Weather History Date:

Tuesday, April 24, 2012

  Actual Average Record
Temperature  
Mean Temperature 86 °F -  
Max Temperature 96 °F - - ()
Min Temperature 75 °F - - ()
Cooling Degree Days 20    
Growing Degree Days 36 (Base 50)    
Moisture  
Dew Point 68 °F    
Average Humidity 56    
Maximum Humidity 78    
Minimum Humidity 38    
Precipitation  
Precipitation 0.00 in - - ()
Sea Level Pressure  
Sea Level Pressure 29.84 in    
Wind  
Wind Speed 6 mph ()    
Max Wind Speed 12 mph    
Max Gust Speed -    
T = Trace of Precipitation, MM = Missing Value Source: Averaged Metar Reports

Daily Weather History Graph

Daily Weather History Graph

Search for Another Location

Airport:

Trip Planner

Search our weather history database for the weather conditions in past years. The results will help you decide how hot, cold, wet, or windy it might be!

Date:

Astronomy

Apr. 24, 2012 Rise Set
Actual Time 5:55 AM WST 5:29 PM WST
Civil Twilight 5:33 AM WST 5:51 PM WST
Nautical Twilight 5:08 AM WST 6:17 PM WST
Astronomical Twilight 4:42 AM WST 6:42 PM WST
Moon 8:08 AM WST (4/24) 7:33 PM WST (4/24)
Length of Visible Light 12h 18m
Length of Day
11h 33m
Waxing Crescent, 7% of the Moon is Illuminated
Apr 24
Waxing Crescent
Apr 29
First Quarter
May 6
Full
May 13
Last Quarter
May 21
New

Hourly Weather History & Observations

Time (WST) Temp. Heat Index Dew Point Humidity Pressure Visibility Wind Dir Wind Speed Gust Speed Precip Events Conditions
12:00 AM 76 °F - 69 °F 72% 29.81 in - NW 3.5 mph - -  
12:00 AM 77.0 °F - 68.0 °F 74% 29.80 in - NW 3.5 mph - N/A   Unknown
1:00 AM 78.8 °F - 71.6 °F 78% 29.80 in - SW 2.3 mph - N/A   Unknown
2:00 AM 77.0 °F - 69.8 °F 78% 29.80 in - SSE 2.3 mph - N/A   Unknown
3:00 AM 79 °F - 65 °F 53% 29.80 in - SE 8.1 mph - -  
3:00 AM 78.8 °F - 64.4 °F 61% 29.80 in - SE 8.1 mph - N/A   Unknown
4:00 AM 78.8 °F - 64.4 °F 61% 29.80 in - SE 8.1 mph - N/A   Unknown
5:00 AM 78.8 °F - 64.4 °F 61% 29.83 in - SE 9.2 mph - N/A   Unknown
6:00 AM 78 °F - 64 °F 54% 29.84 in - SE 8.1 mph - -  
6:00 AM 78.8 °F - 64.4 °F 61% 29.86 in - SE 8.1 mph - N/A   Unknown
7:00 AM 78.8 °F - 64.4 °F 61% 29.86 in - SE 9.2 mph - N/A   Unknown
8:00 AM 82.4 °F 83.9 °F 64.4 °F 54% 29.89 in - ESE 11.5 mph - N/A   Unknown
9:00 AM 85 °F - 66 °F 44% 29.88 in - East 10.4 mph - -  
9:00 AM 86.0 °F 88.2 °F 66.2 °F 51% 29.89 in - East 10.4 mph - N/A   Unknown
10:00 AM 87.8 °F 91.4 °F 68.0 °F 52% 29.89 in - ESE 9.2 mph - N/A   Unknown
11:00 AM 89.6 °F 94.7 °F 69.8 °F 52% 29.86 in - ESE 8.1 mph - N/A   Unknown
12:00 PM 92 °F - 70 °F 39% 29.83 in - ESE 8.1 mph - -  
12:00 PM 91.4 °F 96.8 °F 69.8 °F 49% 29.83 in - ESE 8.1 mph - N/A   Unknown
1:00 PM 93.2 °F 98.8 °F 69.8 °F 46% 29.80 in - ESE 6.9 mph - N/A   Unknown
2:00 PM 95.0 °F 103.2 °F 71.6 °F 47% 29.80 in - ENE 6.9 mph - N/A   Unknown
3:00 PM 93 °F - 70 °F 38% 29.78 in - SE 6.9 mph - -  
3:00 PM 93.2 °F 98.8 °F 69.8 °F 46% 29.77 in - SE 6.9 mph - N/A   Unknown
4:00 PM 91.4 °F 96.8 °F 69.8 °F 49% 29.80 in - SSE 9.2 mph - N/A   Unknown
5:00 PM 89.6 °F 96.2 °F 71.6 °F 55% 29.80 in - SE 6.9 mph - N/A   Unknown
6:00 PM 88 °F - 70 °F 47% 29.82 in - SE 5.8 mph - -  
6:00 PM 87.8 °F 92.6 °F 69.8 °F 55% 29.83 in - SE 5.8 mph - N/A   Unknown
7:00 PM 86.0 °F 91.8 °F 71.6 °F 62% 29.86 in - SE 6.9 mph - N/A   Unknown
8:00 PM 84.2 °F 88.4 °F 69.8 °F 62% 29.86 in - ESE 6.9 mph - N/A   Unknown
9:00 PM 85 °F - 69 °F 49% 29.88 in - ESE 8.1 mph - -  
9:00 PM 86.0 °F 89.4 °F 68.0 °F 55% 29.89 in - ESE 8.1 mph - N/A   Unknown
10:00 PM 84.2 °F 87.3 °F 68.0 °F 58% 29.89 in - ESE 9.2 mph - N/A   Unknown
11:00 PM 82.4 °F 85.4 °F 68.0 °F 62% 29.89 in - ESE 9.2 mph - N/A   Unknown